KS4XQ Weather Reports


Display with metric or nautical units.
time (UTC)temp
F
wind
direction
speed
MPH
gust
MPH
rain 1hr
in
rain 24hr
in
rain mn
in
humidity
%
barometer
mb
20260904171206 96 174 2.0 4.0 0.00 0.00 0.00 59 1017.4
20260904170807 96 209 2.0 4.0 0.00 0.00 0.00 59 1017.4
20260904170406 96 198 2.0 4.0 0.00 0.00 0.00 57 1017.4
20260904170206 96 205 2.0 4.0 0.00 0.00 0.00 59 1017.4
20260904170008 96 228 2.0 4.0 0.00 0.00 0.00 59 1017.4
20260904165809 96 253 2.0 4.0 0.00 0.00 0.00 59 1017.5
20260904165606 96 182 2.0 4.0 0.00 0.00 0.00 58 1017.5
20260904165406 96 272 1.0 4.0 0.00 0.00 0.00 59 1017.6
20260904165206 96 276 2.0 7.0 0.00 0.00 0.00 60 1017.6
20260904165007 95 209 2.0 7.0 0.00 0.00 0.00 61 1017.6
20260904164809 95 234 2.0 7.0 0.00 0.00 0.00 60 1017.6
20260904164606 95 197 2.0 7.0 0.00 0.00 0.00 60 1017.6
20260904164406 95 191 2.0 7.0 0.00 0.00 0.00 61 1017.6
20260904164206 95 207 2.0 7.0 0.00 0.00 0.00 62 1017.7
20260904164006 95 198 2.0 7.0 0.00 0.00 0.00 62 1017.7
20260904163809 94 178 2.0 7.0 0.00 0.00 0.00 61 1017.7
20260904163606 94 222 2.0 7.0 0.00 0.00 0.00 61 1017.8
20260904163406 94 290 1.0 7.0 0.00 0.00 0.00 62 1017.8
20260904163006 94 206 1.0 4.0 0.00 0.00 0.00 64 1017.9
20260904162808 94 175 1.0 4.0 0.00 0.00 0.00 65 1017.8
20260904162607 94 236 1.0 3.0 0.00 0.00 0.00 63 1017.8
20260904162206 94 106 1.0 3.0 0.00 0.00 0.00 63 1017.9
20260904161808 93 267 1.0 3.0 0.00 0.00 0.00 64 1018.0
20260904161606 93 188 1.0 3.0 0.00 0.00 0.00 64 1018.0
20260904161406 93 36 1.0 5.0 0.00 0.00 0.00 65 1018.0
20260904161208 93 105 1.0 5.0 0.00 0.00 0.00 64 1018.0
20260904161006 93 206 1.0 5.0 0.00 0.00 0.00 65 1018.0
20260904160808 92 225 1.0 5.0 0.00 0.00 0.00 66 1018.1
20260904160606 92 218 1.0 5.0 0.00 0.00 0.00 67 1018.0
20260904160406 92 213 1.0 3.0 0.00 0.00 0.00 67 1018.1
20260904155806 91 205 1.0 3.0 0.00 0.00 0.00 66 1018.1
20260904155606 91 227 1.0 3.0 0.00 0.00 0.00 67 1018.0
20260904155407 91 340 1.0 3.0 0.00 0.00 0.00 66 1018.1
20260904155209 91 182 1.0 3.0 0.00 0.00 0.00 65 1018.1
20260904155006 90 184 1.0 3.0 0.00 0.00 0.00 67 1018.2
20260904154606 90 196 1.0 3.0 0.00 0.00 0.00 67 1018.2
20260904154408 90 286 1.0 3.0 0.00 0.00 0.00 68 1018.2
20260904154006 90 256 1.0 4.0 0.00 0.00 0.00 68 1018.1
20260904153808 89 169 1.0 4.0 0.00 0.00 0.00 68 1018.2
20260904153606 89 217 1.0 4.0 0.00 0.00 0.00 69 1018.2
20260904153406 89 313 1.0 4.0 0.00 0.00 0.00 70 1018.3
20260904153207 89 325 1.0 4.0 0.00 0.00 0.00 70 1018.2
20260904153006 89 17 1.0 4.0 0.00 0.00 0.00 69 1018.2
20260904152809 88 17 2.0 4.0 0.00 0.00 0.00 70 1018.2
20260904152406 88 259 1.0 4.0 0.00 0.00 0.00 72 1018.3
20260904151806 87 261 1.0 5.0 0.00 0.00 0.00 73 1018.2
20260904151406 87 250 1.0 5.0 0.00 0.00 0.00 73 1018.2
20260904151209 87 294 1.0 4.0 0.00 0.00 0.00 73 1018.2
20260904150806 86 207 1.0 4.0 0.00 0.00 0.00 75 1018.2
20260904150406 86 298 1.0 4.0 0.00 0.00 0.00 75 1018.2
20260904150209 86 276 1.0 3.0 0.00 0.00 0.00 76 1018.2
20260904150009 85 107 1.0 3.0 0.00 0.00 0.00 75 1018.2
20260904145606 85 36 1.0 3.0 0.00 0.00 0.00 77 1018.2
20260904145406 85 130 1.0 3.0 0.00 0.00 0.00 77 1018.2
20260904145209 85 355 1.0 3.0 0.00 0.00 0.00 77 1018.1
20260904145006 84 355 1.0 3.0 0.00 0.00 0.00 78 1018.2
20260904144808 84 286 1.0 3.0 0.00 0.00 0.00 78 1018.2
20260904144606 84 265 1.0 3.0 0.00 0.00 0.00 79 1018.1
20260904144407 83 107 1.0 5.0 0.00 0.00 0.00 82 1018.1
20260904144209 83 107 2.0 7.0 0.00 0.00 0.00 81 1018.2
20260904143806 83 330 2.0 7.0 0.00 0.00 0.00 81 1018.2
20260904143606 82 267 2.0 7.0 0.00 0.00 0.00 81 1018.1
20260904143406 82 251 2.0 7.0 0.00 0.00 0.00 82 1018.2
20260904143006 82 292 2.0 8.0 0.00 0.00 0.00 82 1018.2
20260904142809 82 281 2.0 8.0 0.00 0.00 0.00 83 1018.2
20260904142606 81 275 2.0 8.0 0.00 0.00 0.00 82 1018.2
20260904142406 81 281 2.0 8.0 0.00 0.00 0.00 83 1018.2
20260904142206 81 244 2.0 8.0 0.00 0.00 0.00 83 1018.2
20260904141809 81 322 1.0 4.0 0.00 0.00 0.00 84 1018.1
20260904141606 81 269 0.0 2.0 0.00 0.00 0.00 84 1018.1
20260904141409 80 325 0.0 2.0 0.00 0.00 0.00 85 1018.1
20260904141006 80 304 1.0 2.0 0.00 0.00 0.00 88 1018.1
20260904140806 80 304 1.0 3.0 0.00 0.00 0.00 87 1017.9
20260904140606 80 355 1.0 3.0 0.00 0.00 0.00 88 1018.0
20260904140408 79 281 1.0 3.0 0.00 0.00 0.00 88 1018.0
20260904140206 79 281 1.0 3.0 0.00 0.00 0.00 88 1017.9
20260904140013 79 263 1.0 5.0 0.00 0.00 0.00 87 1018.0
20260904135806 79 278 1.0 5.0 0.00 0.00 0.00 88 1018.0
20260904135606 79 281 1.0 5.0 0.00 0.00 0.00 89 1018.1
20260904135407 79 256 1.0 5.0 0.00 0.00 0.00 88 1018.1
20260904135206 78 279 1.0 5.0 0.00 0.00 0.00 89 1018.0
20260904134806 78 278 1.0 2.0 0.00 0.00 0.00 89 1018.0
20260904134606 78 278 1.0 5.0 0.00 0.00 0.00 91 1018.0
20260904134206 77 278 1.0 5.0 0.00 0.00 0.00 91 1018.0
20260904134008 77 278 2.0 5.0 0.00 0.00 0.00 91 1018.1
20260904133806 77 275 2.0 4.0 0.00 0.00 0.00 92 1018.1
20260904133608 77 263 2.0 4.0 0.00 0.00 0.00 92 1018.1
20260904133406 77 284 2.0 5.0 0.00 0.00 0.00 92 1018.1
20260904133206 76 275 2.0 5.0 0.00 0.00 0.00 92 1018.1
20260904132806 76 274 1.0 5.0 0.00 0.00 0.00 93 1018.2
20260904132612 76 291 1.0 3.0 0.00 0.00 0.00 93 1018.2
20260904132406 76 291 1.0 3.0 0.00 0.00 0.00 93 1018.2
20260904132206 75 288 1.0 3.0 0.00 0.00 0.00 94 1018.2
20260904131806 75 277 2.0 5.0 0.00 0.00 0.00 94 1018.2
20260904131609 75 229 2.0 5.0 0.00 0.00 0.00 94 1018.2
20260904131206 75 254 2.0 5.0 0.00 0.00 0.00 94 1018.2
20260904131006 74 284 2.0 4.0 0.00 0.00 0.00 94 1018.2
20260904130807 74 276 1.0 4.0 0.00 0.00 0.00 95 1018.1
20260904130607 74 271 1.0 4.0 0.00 0.00 0.00 95 1018.2
20260904130206 74 287 1.0 2.0 0.00 0.00 0.00 95 1018.2
20260904130009 74 287 0.0 2.0 0.00 0.00 0.00 95 1018.1
20260904125805 74 262 1.0 2.0 0.00 0.00 0.00 95 1018.2
20260904125608 74 262 1.0 3.0 0.00 0.00 0.00 95 1018.1
20260904125405 73 262 1.0 4.0 0.00 0.00 0.00 95 1018.2
20260904125204 73 284 2.0 4.0 0.00 0.00 0.00 95 1018.1
20260904125005 73 284 1.0 4.0 0.00 0.00 0.00 95 1018.1
20260904124804 73 284 1.0 4.0 0.00 0.00 0.00 95 1018.1
20260904124606 73 281 1.0 4.0 0.00 0.00 0.00 95 1018.1
20260904124405 73 284 1.0 3.0 0.00 0.00 0.00 95 1018.0
20260904124207 73 284 1.0 3.0 0.00 0.00 0.00 95 1018.1
20260904124005 73 284 1.0 2.0 0.00 0.00 0.00 95 1018.2
20260904123805 73 284 1.0 3.0 0.00 0.00 0.00 95 1018.2
20260904123605 72 284 1.0 3.0 0.00 0.00 0.00 95 1018.1
20260904123404 72 284 1.0 3.0 0.00 0.00 0.00 95 1018.1
20260904123208 72 284 0.0 3.0 0.00 0.00 0.00 95 1018.1
20260904123005 72 284 0.0 3.0 0.00 0.00 0.00 95 1018.1
20260904122807 72 280 0.0 2.0 0.00 0.00 0.00 95 1018.1
20260904122605 72 285 0.0 0.0 0.00 0.00 0.00 94 1018.1
20260904122405 72 166 0.0 0.0 0.00 0.00 0.00 94 1018.1
20260904122206 72 166 0.0 0.0 0.00 0.00 0.00 95 1018.1
20260904122005 72 166 0.0 0.0 0.00 0.00 0.00 94 1018.0
20260904121807 72 166 0.0 0.0 0.00 0.00 0.00 94 1018.0
20260904121605 72 166 0.0 0.0 0.00 0.00 0.00 94 1018.1
20260904121406 72 166 0.0 0.0 0.00 0.00 0.00 94 1018.1
20260904121205 72 166 0.0 0.0 0.00 0.00 0.00 94 1018.1
20260904121005 72 166 0.0 0.0 0.00 0.00 0.00 94 1018.0
20260904120806 72 166 0.0 0.0 0.00 0.00 0.00 94 1018.1
20260904120605 72 166 0.0 0.0 0.00 0.00 0.00 94 1018.0
20260904120407 72 166 0.0 0.0 0.00 0.00 0.00 94 1018.0
20260904120205 71 166 0.0 0.0 0.00 0.00 0.00 94 1018.0
20260904120007 71 166 0.0 0.0 0.00 0.00 0.00 94 1018.0
20260904115806 71 166 0.0 0.0 0.00 0.00 0.00 94 1017.9
20260904115606 71 166 0.0 0.0 0.00 0.00 0.00 94 1017.8
20260904115408 71 166 0.0 0.0 0.00 0.00 0.00 94 1017.9
20260904115205 71 166 0.0 0.0 0.00 0.00 0.00 94 1017.9
20260904115005 71 166 0.0 0.0 0.00 0.00 0.00 93 1017.9
20260904114805 71 166 0.0 0.0 0.00 0.00 0.00 93 1017.8
20260904114605 71 166 0.0 0.0 0.00 0.00 0.00 93 1017.8
20260904114407 71 166 0.0 0.0 0.00 0.00 0.00 94 1017.9
20260904114205 71 166 0.0 0.0 0.00 0.00 0.00 94 1017.8
20260904114008 71 166 0.0 0.0 0.00 0.00 0.00 93 1017.8
20260904113805 71 166 0.0 0.0 0.00 0.00 0.00 93 1017.8
20260904113606 71 166 0.0 0.0 0.00 0.00 0.00 93 1017.7
20260904113404 71 166 0.0 0.0 0.00 0.00 0.00 93 1017.8
20260904113205 71 166 0.0 0.0 0.00 0.00 0.00 93 1017.8
20260904113007 71 166 0.0 0.0 0.00 0.00 0.00 93 1017.8
20260904112805 71 166 0.0 0.0 0.00 0.00 0.00 93 1017.8
20260904112610 71 166 0.0 0.0 0.00 0.00 0.00 93 1017.7
20260904112405 71 166 0.0 0.0 0.00 0.00 0.00 93 1017.8
20260904112204 71 166 0.0 0.0 0.00 0.00 0.00 93 1017.8
20260904112005 71 166 0.0 0.0 0.00 0.00 0.00 93 1017.9
20260904111805 71 166 0.0 0.0 0.00 0.00 0.00 93 1017.8
20260904111606 71 166 0.0 0.0 0.00 0.00 0.00 92 1017.9
20260904111405 71 166 0.0 0.0 0.00 0.00 0.00 93 1017.9
20260904111207 71 166 0.0 0.0 0.00 0.00 0.00 92 1017.8
20260904111005 71 166 0.0 0.0 0.00 0.00 0.00 92 1017.7
20260904110805 71 166 0.0 0.0 0.00 0.00 0.00 93 1017.7
20260904110607 71 166 0.0 0.0 0.00 0.00 0.00 93 1017.7
20260904110405 71 166 0.0 0.0 0.00 0.00 0.00 93 1017.7
20260904110207 71 166 0.0 0.0 0.00 0.00 0.00 93 1017.7
20260904110007 71 166 0.0 0.0 0.00 0.00 0.00 93 1017.7
20260904105805 71 166 0.0 0.0 0.00 0.00 0.00 93 1017.8
20260904105607 71 166 0.0 0.0 0.00 0.00 0.00 93 1017.8
20260904105405 72 166 0.0 0.0 0.00 0.00 0.00 93 1017.8
20260904105205 72 166 0.0 0.0 0.00 0.00 0.00 94 1017.8
20260904105005 71 166 0.0 0.0 0.00 0.00 0.00 94 1017.8
20260904104607 71 166 0.0 0.0 0.00 0.00 0.00 93 1017.7
20260904104405 71 166 0.0 0.0 0.00 0.00 0.00 93 1017.7
20260904104205 71 166 0.0 0.0 0.00 0.00 0.00 93 1017.6
20260904104005 71 166 0.0 0.0 0.00 0.00 0.00 93 1017.7
20260904103805 71 166 0.0 0.0 0.00 0.00 0.00 93 1017.6
20260904103207 71 166 0.0 0.0 0.00 0.00 0.00 93 1017.6
20260904103005 71 166 0.0 0.0 0.00 0.00 0.00 93 1017.6
20260904102805 72 166 0.0 0.0 0.00 0.00 0.00 93 1017.6
20260904102207 71 166 0.0 0.0 0.00 0.00 0.00 93 1017.6
20260904101606 72 166 0.0 0.0 0.00 0.00 0.00 93 1017.5
20260904101405 72 166 0.0 0.0 0.00 0.00 0.00 93 1017.5
20260904101207 72 166 0.0 0.0 0.00 0.00 0.00 93 1017.4
20260904101005 72 166 0.0 0.0 0.00 0.00 0.00 93 1017.5
20260904100805 72 166 0.0 0.0 0.00 0.00 0.00 93 1017.4
20260904100606 72 166 0.0 0.0 0.00 0.00 0.00 93 1017.5
20260904100405 72 166 0.0 0.0 0.00 0.00 0.00 93 1017.4
20260904100207 72 166 0.0 0.0 0.00 0.00 0.00 93 1017.5
20260904100007 72 166 0.0 0.0 0.00 0.00 0.00 93 1017.4
20260904095805 72 166 0.0 0.0 0.00 0.00 0.00 93 1017.4
20260904095608 72 166 0.0 0.0 0.00 0.00 0.00 92 1017.4
20260904095407 72 166 0.0 0.0 0.00 0.00 0.00 92 1017.4
20260904095005 72 166 0.0 0.0 0.00 0.00 0.00 92 1017.3
20260904094805 72 166 0.0 0.0 0.00 0.00 0.00 92 1017.4
20260904094405 72 166 0.0 0.0 0.00 0.00 0.00 91 1017.3
20260904094205 72 166 0.0 0.0 0.00 0.00 0.00 91 1017.3
20260904094005 72 166 0.0 0.0 0.00 0.00 0.00 91 1017.3
20260904093805 72 166 0.0 0.0 0.00 0.00 0.00 91 1017.3
20260904093607 72 166 0.0 0.0 0.00 0.00 0.00 91 1017.3
20260904093405 72 166 0.0 0.0 0.00 0.00 0.00 92 1017.3
20260904093207 72 166 0.0 0.0 0.00 0.00 0.00 92 1017.3
20260904093005 72 166 0.0 0.0 0.00 0.00 0.00 91 1017.3
20260904092805 72 166 0.0 0.0 0.00 0.00 0.00 91 1017.3
20260904092607 72 166 0.0 0.0 0.00 0.00 0.00 91 1017.4
20260904092405 72 166 0.0 0.0 0.00 0.00 0.00 91 1017.3
20260904092207 72 166 0.0 0.0 0.00 0.00 0.00 91 1017.3
20260904092006 72 166 0.0 0.0 0.00 0.00 0.00 91 1017.3
20260904091805 72 166 0.0 0.0 0.00 0.00 0.00 91 1017.3
20260904091607 72 166 0.0 0.0 0.00 0.00 0.00 91 1017.2
20260904091207 72 166 0.0 0.0 0.00 0.00 0.00 91 1017.2
20260904090805 72 166 0.0 0.0 0.00 0.00 0.00 90 1017.1
20260904090606 72 166 0.0 0.0 0.00 0.00 0.00 90 1017.1
20260904090405 72 166 0.0 0.0 0.00 0.00 0.00 90 1017.2
20260904090207 72 166 0.0 0.0 0.00 0.00 0.00 90 1017.1
20260904090008 72 166 0.0 0.0 0.00 0.00 0.00 90 1017.1
20260904085805 72 166 0.0 0.0 0.00 0.00 0.00 90 1017.1
20260904085406 72 166 0.0 0.0 0.00 0.00 0.00 90 1017.0
20260904085005 72 166 0.0 0.0 0.00 0.00 0.00 90 1017.1
20260904084805 72 166 0.0 0.0 0.00 0.00 0.00 90 1017.1
20260904084608 72 166 0.0 1.0 0.00 0.00 0.00 90 1017.1
20260904084405 72 166 0.0 1.0 0.00 0.00 0.00 90 1017.1
20260904084207 72 166 0.0 1.0 0.00 0.00 0.00 90 1017.1
20260904084005 72 166 0.0 1.0 0.00 0.00 0.00 90 1017.1
20260904083805 72 166 0.0 1.0 0.00 0.00 0.00 90 1017.0
20260904083405 72 166 0.0 0.0 0.00 0.00 0.00 90 1017.0
20260904083207 72 166 0.0 0.0 0.00 0.00 0.00 90 1017.0
20260904083005 72 166 0.0 0.0 0.00 0.00 0.00 89 1016.9
20260904082805 73 166 0.0 0.0 0.00 0.00 0.00 89 1017.0
20260904082607 73 166 0.0 0.0 0.00 0.00 0.00 89 1017.0
20260904082405 73 166 0.0 0.0 0.00 0.00 0.00 89 1017.0
20260904082207 73 166 0.0 0.0 0.00 0.00 0.00 89 1016.9
20260904082005 73 166 0.0 0.0 0.00 0.00 0.00 89 1016.9
20260904081805 73 166 0.0 0.0 0.00 0.00 0.00 89 1016.9
20260904081607 73 166 0.0 0.0 0.00 0.00 0.00 89 1016.9
20260904081405 73 166 0.0 0.0 0.00 0.00 0.00 89 1017.0
20260904081207 73 166 0.0 0.0 0.00 0.00 0.00 89 1017.0
20260904081007 73 166 0.0 0.0 0.00 0.00 0.00 89 1016.9
20260904080805 73 166 0.0 0.0 0.00 0.00 0.00 89 1016.9
20260904080608 73 166 0.0 0.0 0.00 0.00 0.00 89 1016.9
20260904080405 73 166 0.0 0.0 0.00 0.00 0.00 89 1016.9
20260904080207 73 166 0.0 0.0 0.00 0.00 0.00 89 1016.9
20260904080007 73 166 0.0 0.0 0.00 0.00 0.00 89 1017.0
20260904075607 73 166 0.0 0.0 0.00 0.00 0.00 89 1016.9
20260904075405 73 166 0.0 0.0 0.00 0.00 0.00 89 1017.0
20260904075005 73 166 0.0 0.0 0.00 0.00 0.00 89 1017.0
20260904074807 73 166 0.0 0.0 0.00 0.00 0.00 89 1016.9
20260904074405 73 166 0.0 0.0 0.00 0.00 0.00 89 1017.0
20260904074205 73 166 0.0 0.0 0.00 0.00 0.00 89 1017.0
20260904074005 73 166 0.0 0.0 0.00 0.00 0.00 89 1017.1
20260904073805 73 166 0.0 0.0 0.00 0.00 0.00 89 1017.0
20260904073608 73 166 0.0 0.0 0.00 0.00 0.00 88 1016.9
20260904073405 73 166 0.0 0.0 0.00 0.00 0.00 88 1017.0
20260904073205 73 166 0.0 0.0 0.00 0.00 0.00 88 1017.0
20260904073006 73 166 0.0 0.0 0.00 0.00 0.00 88 1017.0
20260904072805 73 166 0.0 0.0 0.00 0.00 0.00 88 1017.0
20260904072607 73 166 0.0 0.0 0.00 0.00 0.00 88 1017.0
20260904072406 74 166 0.0 0.0 0.00 0.00 0.00 88 1017.0
20260904072205 74 166 0.0 0.0 0.00 0.00 0.00 88 1017.0
20260904072005 74 166 0.0 0.0 0.00 0.00 0.00 88 1017.0
20260904071805 74 166 0.0 0.0 0.00 0.00 0.00 88 1016.9
20260904071607 74 166 0.0 0.0 0.00 0.00 0.00 89 1016.9
20260904071205 74 166 0.0 0.0 0.00 0.00 0.00 88 1017.0
20260904071005 74 166 0.0 0.0 0.00 0.00 0.00 88 1017.0
20260904070805 74 166 0.0 0.0 0.00 0.00 0.00 88 1017.0
20260904070606 74 166 0.0 0.0 0.00 0.00 0.00 88 1017.0
20260904070405 74 166 0.0 0.0 0.00 0.00 0.00 88 1017.0
20260904070207 74 166 0.0 0.0 0.00 0.00 0.00 88 1017.0
20260904070009 74 166 0.0 0.0 0.00 0.00 0.00 88 1017.0
20260904065805 74 166 0.0 0.0 0.00 0.00 0.00 88 1017.0
20260904065606 74 166 0.0 0.0 0.00 0.00 0.00 88 1016.9
20260904065405 74 166 0.0 0.0 0.00 0.00 0.00 88 1017.0
20260904065205 74 166 0.0 0.0 0.00 0.00 0.00 88 1017.0
20260904065005 74 166 0.0 0.0 0.00 0.00 0.00 87 1017.1
20260904064805 74 166 0.0 0.0 0.00 0.00 0.00 87 1017.0
20260904064608 74 166 0.0 0.0 0.00 0.00 0.00 87 1017.1
20260904064405 74 166 0.0 0.0 0.00 0.00 0.00 87 1017.0
20260904064205 74 166 0.0 0.0 0.00 0.00 0.00 87 1017.2
20260904064005 74 166 0.0 0.0 0.00 0.00 0.00 87 1017.1
20260904063608 74 166 0.0 0.0 0.00 0.00 0.00 87 1017.3
20260904063405 74 166 0.0 0.0 0.00 0.00 0.00 87 1017.3
20260904063207 74 166 0.0 0.0 0.00 0.00 0.00 87 1017.3
20260904063005 74 166 0.0 0.0 0.00 0.00 0.00 87 1017.3
20260904062805 74 166 0.0 0.0 0.00 0.00 0.00 87 1017.3
20260904062606 74 166 0.0 0.0 0.00 0.00 0.00 87 1017.3
20260904062405 74 166 0.0 0.0 0.00 0.00 0.00 87 1017.3
20260904062207 75 166 0.0 0.0 0.00 0.00 0.00 87 1017.3
20260904062005 75 166 0.0 0.0 0.00 0.00 0.00 87 1017.3
20260904061806 75 166 0.0 0.0 0.00 0.00 0.00 86 1017.3
20260904061606 75 166 0.0 0.0 0.00 0.00 0.00 86 1017.3
20260904061208 75 166 0.0 0.0 0.00 0.00 0.00 86 1017.4
20260904061005 75 166 0.0 0.0 0.00 0.00 0.00 86 1017.4
20260904060805 75 166 0.0 0.0 0.00 0.00 0.00 86 1017.4
20260904060604 75 166 0.0 0.0 0.00 0.00 0.00 86 1017.3
20260904060406 75 166 0.0 0.0 0.00 0.00 0.00 86 1017.4
20260904060208 75 166 0.0 0.0 0.00 0.00 0.00 86 1017.4
20260904060007 75 166 0.0 0.0 0.00 0.00 0.00 86 1017.4
20260904055605 75 166 0.0 0.0 0.00 0.00 0.00 86 1017.5
20260904055404 75 166 0.0 0.0 0.00 0.00 0.00 86 1017.6
20260904055005 75 166 0.0 0.0 0.00 0.00 0.00 86 1017.6
20260904054805 75 166 0.0 0.0 0.00 0.00 0.00 86 1017.5
20260904054605 75 166 0.0 0.0 0.00 0.00 0.00 86 1017.6
20260904054206 75 166 0.0 0.0 0.00 0.00 0.00 86 1017.6
20260904054005 75 166 0.0 0.0 0.00 0.00 0.00 86 1017.6
20260904053807 75 166 0.0 0.0 0.00 0.00 0.00 86 1017.6
20260904053605 75 166 0.0 0.0 0.00 0.00 0.00 86 1017.6
20260904053405 76 166 0.0 0.0 0.00 0.00 0.00 86 1017.7
20260904053205 76 166 0.0 0.0 0.00 0.00 0.00 85 1017.6
20260904053005 76 166 0.0 0.0 0.00 0.00 0.00 85 1017.7
20260904052604 76 166 0.0 0.0 0.00 0.00 0.00 86 1017.5
20260904052205 76 166 0.0 0.0 0.00 0.00 0.00 85 1017.6
20260904052005 76 166 0.0 0.0 0.00 0.00 0.00 85 1017.6
20260904051806 76 166 0.0 0.0 0.00 0.00 0.00 85 1017.6
20260904051408 76 166 0.0 0.0 0.00 0.00 0.00 86 1017.6
20260904051205 76 166 0.0 0.0 0.00 0.00 0.00 85 1017.6
20260904051004 76 166 0.0 0.0 0.00 0.00 0.00 85 1017.6
20260904050806 76 166 0.0 0.0 0.00 0.00 0.00 85 1017.6
20260904045805 76 166 0.0 0.0 0.00 0.00 0.00 85 1017.6
20260904045605 76 166 0.0 0.0 0.00 0.00 0.00 85 1017.7
20260904045406 76 166 0.0 0.0 0.00 0.00 0.00 84 1017.8
20260904045205 77 166 0.0 0.0 0.00 0.00 0.00 84 1017.7
20260904045005 77 166 0.0 0.0 0.00 0.00 0.00 84 1017.7
20260904044804 77 166 0.0 0.0 0.00 0.00 0.00 84 1017.7
20260904044605 77 166 0.0 0.0 0.00 0.00 0.00 85 1017.7
20260904044404 77 166 0.0 0.0 0.00 0.00 0.00 84 1017.7
20260904044006 77 166 0.0 0.0 0.00 0.00 0.00 84 1017.8
20260904043605 77 166 0.0 0.0 0.00 0.00 0.00 84 1017.9
20260904043406 77 166 0.0 0.0 0.00 0.00 0.00 84 1017.7
20260904043204 77 166 0.0 0.0 0.00 0.00 0.00 84 1017.8
20260904043009 77 166 0.0 0.0 0.00 0.00 0.00 84 1017.9
20260904042805 77 166 0.0 0.0 0.00 0.00 0.00 84 1017.9
20260904042604 77 166 0.0 0.0 0.00 0.00 0.00 84 1017.9
20260904042404 77 166 0.0 0.0 0.00 0.00 0.00 84 1017.9
20260904042205 77 166 0.0 0.0 0.00 0.00 0.00 84 1017.9
20260904042006 77 166 0.0 0.0 0.00 0.00 0.00 84 1017.8
20260904041805 77 166 0.0 0.0 0.00 0.00 0.00 84 1017.8
20260904041608 77 166 0.0 0.0 0.00 0.00 0.00 84 1017.9
20260904041405 77 166 0.0 0.0 0.00 0.00 0.00 84 1017.9
20260904041005 78 166 0.0 0.0 0.00 0.00 0.00 84 1017.9
20260904040805 78 166 0.0 0.0 0.00 0.00 0.00 84 1017.9
20260904040608 78 166 0.0 0.0 0.00 0.00 0.00 84 1017.9
20260904040405 78 166 0.0 0.0 0.00 0.00 0.00 84 1017.9
20260904040207 78 166 0.0 0.0 0.00 0.00 0.00 84 1017.8
20260904040014 78 166 0.0 0.0 0.00 0.00 0.00 83 1017.9
20260904035809 78 166 0.0 0.0 0.00 0.00 0.00 83 1017.9
20260904035607 78 166 0.0 0.0 0.00 0.00 0.00 83 1017.9
20260904035409 78 166 0.0 0.0 0.00 0.00 0.00 83 1017.9
20260904035207 78 166 0.0 0.0 0.00 0.00 0.00 83 1017.8
20260904035010 78 166 0.0 0.0 0.00 0.00 0.00 83 1017.9
20260904034807 78 166 0.0 0.0 0.00 0.00 0.00 83 1017.9
20260904034607 78 166 0.0 0.0 0.00 0.00 0.00 83 1017.9
20260904034207 78 166 0.0 0.0 0.00 0.00 0.00 83 1017.9
20260904034009 78 166 0.0 0.0 0.00 0.00 0.00 83 1017.8
20260904033207 78 166 0.0 0.0 0.00 0.00 0.00 82 1018.0
20260904033010 78 166 0.0 0.0 0.00 0.00 0.00 82 1018.0
20260904032607 79 166 0.0 0.0 0.00 0.00 0.00 82 1018.0
20260904032207 79 166 0.0 0.0 0.00 0.00 0.00 82 1018.0
20260904032010 79 166 0.0 0.0 0.00 0.00 0.00 82 1018.0
20260904031608 79 166 0.0 0.0 0.00 0.00 0.00 82 1018.0
20260904031409 79 166 0.0 0.0 0.00 0.00 0.00 82 1018.0
20260904031208 79 166 0.0 0.0 0.00 0.00 0.00 82 1018.0
20260904031009 79 166 0.0 0.0 0.00 0.00 0.00 81 1018.0
20260904030807 79 166 0.0 0.0 0.00 0.00 0.00 82 1018.0
20260904030408 79 166 0.0 0.0 0.00 0.00 0.00 81 1018.0
20260904030207 79 166 0.0 0.0 0.00 0.00 0.00 81 1018.0
20260904030012 79 166 0.0 0.0 0.00 0.00 0.00 81 1018.0
20260904025807 79 166 0.0 0.0 0.00 0.00 0.00 81 1018.0
20260904025607 79 166 0.0 0.0 0.00 0.00 0.00 81 1018.1
20260904025408 79 166 0.0 0.0 0.00 0.00 0.00 81 1018.0
20260904025207 79 166 0.0 0.0 0.00 0.00 0.00 81 1018.0
20260904024807 80 166 0.0 0.0 0.00 0.00 0.00 81 1018.0
20260904024607 80 166 0.0 0.0 0.00 0.00 0.00 81 1018.0
20260904024407 80 166 0.0 0.0 0.00 0.00 0.00 81 1018.0
20260904024208 80 166 0.0 0.0 0.00 0.00 0.00 81 1017.9
20260904024010 80 166 0.0 0.0 0.00 0.00 0.00 81 1017.9
20260904023808 80 166 0.0 0.0 0.00 0.00 0.00 81 1017.9
20260904023607 80 166 0.0 0.0 0.00 0.00 0.00 81 1017.9
20260904023407 80 166 0.0 0.0 0.00 0.00 0.00 81 1018.0
20260904023207 80 166 0.0 0.0 0.00 0.00 0.00 81 1017.9
20260904023010 80 166 0.0 0.0 0.00 0.00 0.00 81 1017.9
20260904022807 80 166 0.0 0.0 0.00 0.00 0.00 81 1018.0
20260904022609 80 166 0.0 0.0 0.00 0.00 0.00 81 1018.0
20260904022409 80 166 0.0 0.0 0.00 0.00 0.00 81 1018.0
20260904022207 80 166 0.0 0.0 0.00 0.00 0.00 80 1017.9
20260904022010 80 166 0.0 0.0 0.00 0.00 0.00 80 1017.9
20260904021807 80 166 0.0 0.0 0.00 0.00 0.00 80 1017.9
20260904021407 80 166 0.0 0.0 0.00 0.00 0.00 80 1017.9
20260904021207 80 166 0.0 0.0 0.00 0.00 0.00 80 1017.8
20260904021009 80 166 0.0 0.0 0.00 0.00 0.00 80 1017.8
20260904020807 81 166 0.0 0.0 0.00 0.00 0.00 80 1017.8
20260904020408 81 166 0.0 0.0 0.00 0.00 0.00 80 1017.7
20260904020207 81 166 0.0 0.0 0.00 0.00 0.00 80 1017.8
20260904015809 81 166 0.0 0.0 0.00 0.00 0.00 80 1017.7
20260904015607 81 166 0.0 0.0 0.00 0.00 0.00 79 1017.7
20260904015207 81 166 0.0 0.0 0.00 0.00 0.00 80 1017.8
20260904015009 81 166 0.0 0.0 0.00 0.00 0.00 80 1017.8
20260904014807 81 166 0.0 0.0 0.00 0.00 0.00 79 1017.8
20260904014607 81 166 0.0 0.0 0.00 0.00 0.00 78 1017.8
20260904014409 81 166 0.0 0.0 0.00 0.00 0.00 78 1017.8
20260904014207 81 166 0.0 0.0 0.00 0.00 0.00 78 1017.8
20260904014009 81 166 0.0 0.0 0.00 0.00 0.00 78 1017.6
20260904013807 81 166 0.0 0.0 0.00 0.00 0.00 77 1017.6
20260904013409 82 166 0.0 0.0 0.00 0.00 0.00 77 1017.5
20260904013207 82 166 0.0 0.0 0.00 0.00 0.00 77 1017.5
20260904013009 82 166 0.0 0.0 0.00 0.00 0.00 77 1017.4
20260904012807 82 166 0.0 0.0 0.00 0.00 0.00 77 1017.4
20260904012609 82 166 0.0 0.0 0.00 0.00 0.00 77 1017.4
20260904012408 82 166 0.0 0.0 0.00 0.00 0.00 78 1017.3
20260904012209 82 166 0.0 0.0 0.00 0.00 0.00 77 1017.4
20260904012009 82 166 0.0 0.0 0.00 0.00 0.00 77 1017.3
20260904011807 82 166 0.0 0.0 0.00 0.00 0.00 77 1017.4
20260904011607 82 166 0.0 0.0 0.00 0.00 0.00 77 1017.3
20260904011409 82 166 0.0 0.0 0.00 0.00 0.00 76 1017.3
20260904011207 83 166 0.0 0.0 0.00 0.00 0.00 77 1017.2
20260904011009 83 166 0.0 0.0 0.00 0.00 0.00 77 1017.2
20260904010807 83 166 0.0 0.0 0.00 0.00 0.00 76 1017.1
20260904010607 83 166 0.0 0.0 0.00 0.00 0.00 76 1017.1
20260904010409 83 166 0.0 0.0 0.00 0.00 0.00 76 1017.0
20260904010207 83 166 0.0 0.0 0.00 0.00 0.00 76 1017.0
20260904005807 83 166 0.0 0.0 0.00 0.00 0.00 76 1016.9
20260904005607 84 166 0.0 0.0 0.00 0.00 0.00 75 1016.9
20260904005409 84 166 0.0 0.0 0.00 0.00 0.00 75 1016.8
20260904005207 84 166 0.0 0.0 0.00 0.00 0.00 75 1016.9
20260904005009 84 166 0.0 0.0 0.00 0.00 0.00 75 1016.8
20260904004807 84 166 0.0 0.0 0.00 0.00 0.00 74 1016.8
20260904004407 84 166 0.0 0.0 0.00 0.00 0.00 74 1016.8
20260904004207 84 166 0.0 0.0 0.00 0.00 0.00 73 1016.6
20260904003809 85 166 0.0 0.0 0.00 0.00 0.00 72 1016.6
20260904003607 85 166 0.0 0.0 0.00 0.00 0.00 72 1016.6
20260904003409 85 166 0.0 0.0 0.00 0.00 0.00 71 1016.6
20260904003207 85 166 0.0 0.0 0.00 0.00 0.00 71 1016.5
20260904002807 85 166 0.0 0.0 0.00 0.00 0.00 71 1016.5
20260904002408 85 166 0.0 0.0 0.00 0.00 0.00 71 1016.4
20260904002207 86 166 0.0 0.0 0.00 0.00 0.00 71 1016.3
20260904002009 86 166 0.0 0.0 0.00 0.00 0.00 71 1016.3
20260904001807 86 166 0.0 0.0 0.00 0.00 0.00 71 1016.3
20260904001609 86 166 0.0 0.0 0.00 0.00 0.00 71 1016.2
20260904001407 86 166 0.0 0.0 0.00 0.00 0.00 70 1016.2
20260904001009 86 166 0.0 0.0 0.00 0.00 0.00 69 1016.2
20260904000809 87 166 0.0 0.0 0.00 0.00 0.00 69 1016.2
20260904000607 87 166 0.0 0.0 0.00 0.00 0.00 68 1016.0
20260904000410 87 166 0.0 0.0 0.00 0.00 0.00 68 1016.0
20260904000207 87 166 0.0 0.0 0.00 0.00 0.00 68 1016.0
20260904000012 87 166 0.0 0.0 0.00 0.00 0.00 68 1016.0
20260903235407 88 166 0.0 0.0 0.00 0.00 0.00 67 1015.9
20260903235207 88 166 0.0 0.0 0.00 0.00 0.00 67 1016.0
20260903235008 88 166 0.0 0.0 0.00 0.00 0.00 67 1015.9
20260903234612 88 166 0.0 0.0 0.00 0.00 0.00 67 1015.9
20260903234407 88 166 0.0 0.0 0.00 0.00 0.00 67 1015.9
20260903234207 88 166 0.0 0.0 0.00 0.00 0.00 66 1015.9
20260903234007 89 166 0.0 0.0 0.00 0.00 0.00 65 1015.8
20260903233807 89 166 0.0 0.0 0.00 0.00 0.00 65 1016.0
20260903233610 89 166 0.0 0.0 0.00 0.00 0.00 64 1015.9
20260903233407 89 166 0.0 0.0 0.00 0.00 0.00 64 1015.9
20260903233207 89 166 0.0 0.0 0.00 0.00 0.00 64 1015.9
20260903233008 89 166 0.0 0.0 0.00 0.00 0.00 64 1016.0
20260903232807 89 166 0.0 0.0 0.00 0.00 0.00 63 1015.9
20260903232608 89 166 0.0 0.0 0.00 0.00 0.00 63 1015.9
20260903232407 90 166 0.0 0.0 0.00 0.00 0.00 63 1015.9
20260903232210 90 166 0.0 0.0 0.00 0.00 0.00 63 1015.8
20260903232007 90 166 0.0 0.0 0.00 0.00 0.00 63 1015.8
20260903231807 90 166 0.0 0.0 0.00 0.00 0.00 62 1015.7
20260903231607 90 166 0.0 0.0 0.00 0.00 0.00 62 1015.9
20260903231407 90 166 0.0 0.0 0.00 0.00 0.00 62 1015.9
20260903231210 90 166 0.0 0.0 0.00 0.00 0.00 62 1015.9
20260903231007 90 166 0.0 0.0 0.00 0.00 0.00 62 1015.9
20260903230807 91 166 0.0 0.0 0.00 0.00 0.00 61 1015.9
20260903230407 91 166 0.0 0.0 0.00 0.00 0.00 61 1015.9
20260903230209 91 166 0.0 0.0 0.00 0.00 0.00 60 1015.9
20260903230009 91 166 0.0 0.0 0.00 0.00 0.00 60 1016.0
20260903225806 91 166 0.0 0.0 0.00 0.00 0.00 59 1015.9
20260903225606 91 166 0.0 0.0 0.00 0.00 0.00 59 1016.0
20260903225406 91 166 0.0 0.0 0.00 0.00 0.00 58 1015.9
20260903225209 91 166 0.0 0.0 0.00 0.00 0.00 58 1015.9
20260903224806 92 166 0.0 2.0 0.00 0.00 0.00 57 1016.0
20260903224607 92 166 0.0 2.0 0.00 0.00 0.00 57 1015.9
20260903224406 92 166 1.0 2.0 0.00 0.00 0.00 57 1016.0
20260903224208 92 166 1.0 2.0 0.00 0.00 0.00 57 1015.9
20260903223809 92 166 1.0 4.0 0.00 0.00 0.00 56 1015.8
20260903223406 92 184 1.0 4.0 0.00 0.00 0.00 57 1015.9
20260903223208 92 206 1.0 4.0 0.00 0.00 0.00 57 1016.0
20260903223006 92 208 1.0 4.0 0.00 0.00 0.00 57 1015.9
20260903222206 93 211 1.0 3.0 0.00 0.00 0.00 57 1015.8
20260903222006 93 232 0.0 3.0 0.00 0.00 0.00 57 1015.9
20260903221806 93 163 1.0 3.0 0.00 0.00 0.00 56 1015.9
20260903221606 93 192 1.0 3.0 0.00 0.00 0.00 56 1015.9
20260903221408 93 117 1.0 3.0 0.00 0.00 0.00 56 1015.8
20260903221206 93 185 1.0 3.0 0.00 0.00 0.00 57 1015.8
20260903220806 93 139 1.0 4.0 0.00 0.00 0.00 57 1015.8
20260903220606 93 206 1.0 4.0 0.00 0.00 0.00 58 1015.8
20260903220408 93 190 2.0 4.0 0.00 0.00 0.00 58 1015.8
20260903220206 93 198 2.0 4.0 0.00 0.00 0.00 57 1015.9
20260903220011 93 199 2.0 4.0 0.00 0.00 0.00 56 1015.9
20260903215806 93 194 2.0 4.0 0.00 0.00 0.00 57 1015.9
20260903215206 94 206 2.0 4.0 0.00 0.00 0.00 56 1015.9
20260903215007 94 205 2.0 4.0 0.00 0.00 0.00 56 1015.9
20260903214806 94 211 2.0 5.0 0.00 0.00 0.00 56 1015.9
20260903214609 94 208 2.0 5.0 0.00 0.00 0.00 56 1015.9
20260903214406 94 209 2.0 5.0 0.00 0.00 0.00 56 1015.8
20260903214206 94 209 2.0 5.0 0.00 0.00 0.00 56 1015.8
20260903214008 94 211 2.0 5.0 0.00 0.00 0.00 55 1015.8
20260903213806 94 207 2.0 4.0 0.00 0.00 0.00 55 1015.8
20260903213609 95 209 2.0 4.0 0.00 0.00 0.00 55 1015.8
20260903213406 95 196 2.0 4.0 0.00 0.00 0.00 55 1015.8
20260903213207 95 196 2.0 4.0 0.00 0.00 0.00 55 1015.8
20260903213006 95 211 2.0 4.0 0.00 0.00 0.00 55 1015.8
20260903212406 95 219 1.0 4.0 0.00 0.00 0.00 54 1015.8
20260903212206 95 198 1.0 3.0 0.00 0.00 0.00 55 1015.9
20260903212006 95 179 1.0 3.0 0.00 0.00 0.00 55 1015.8
20260903211806 95 178 1.0 3.0 0.00 0.00 0.00 55 1015.8
20260903211608 95 157 1.0 3.0 0.00 0.00 0.00 55 1015.9
20260903211406 95 142 1.0 4.0 0.00 0.00 0.00 55 1015.9
20260903211208 95 178 1.0 4.0 0.00 0.00 0.00 55 1015.9
20260903211006 95 133 1.0 4.0 0.00 0.00 0.00 55 1015.9
20260903210806 95 169 1.0 4.0 0.00 0.00 0.00 54 1015.9
20260903210608 95 181 1.0 4.0 0.00 0.00 0.00 55 1016.0
20260903210209 95 248 1.0 4.0 0.00 0.00 0.00 55 1015.9
20260903210012 95 134 1.0 4.0 0.00 0.00 0.00 54 1015.9
20260903205407 95 22 1.0 4.0 0.00 0.00 0.00 55 1016.0
20260903205208 95 104 1.0 4.0 0.00 0.00 0.00 52 1015.9
20260903205006 95 324 1.0 4.0 0.00 0.00 0.00 53 1015.9
20260903204608 95 169 1.0 4.0 0.00 0.00 0.00 54 1015.9
20260903204406 95 152 1.0 4.0 0.00 0.00 0.00 54 1016.0
20260903204006 94 199 1.0 4.0 0.00 0.00 0.00 56 1016.0
20260903203608 95 174 0.0 1.0 0.00 0.00 0.00 59 1016.0
20260903203406 95 254 0.0 0.0 0.00 0.00 0.00 58 1016.0
20260903203006 95 254 0.0 0.0 0.00 0.00 0.00 59 1016.2
20260903202608 96 254 0.0 2.0 0.00 0.00 0.00 56 1016.3
20260903202006 97 254 0.0 2.0 0.00 0.00 0.00 55 1016.3
20260903201806 97 322 0.0 2.0 0.00 0.00 0.00 53 1016.4
20260903201408 97 84 1.0 3.0 0.00 0.00 0.00 52 1016.4
20260903201208 97 84 1.0 4.0 0.00 0.00 0.00 50 1016.4
20260903201006 97 11 1.0 4.0 0.00 0.00 0.00 50 1016.5
20260903200806 98 80 1.0 4.0 0.00 0.00 0.00 50 1016.5
20260903200608 98 77 1.0 4.0 0.00 0.00 0.00 49 1016.5
20260903200406 98 47 1.0 4.0 0.00 0.00 0.00 49 1016.5
20260903200208 98 56 1.0 4.0 0.00 0.00 0.00 50 1016.5
20260903200008 98 38 1.0 4.0 0.00 0.00 0.00 51 1016.5
20260903195806 99 217 1.0 2.0 0.00 0.00 0.00 50 1016.5
20260903195609 98 217 1.0 2.0 0.00 0.00 0.00 51 1016.5
20260903195406 98 216 1.0 3.0 0.00 0.00 0.00 50 1016.5
20260903195206 99 167 1.0 3.0 0.00 0.00 0.00 51 1016.5
20260903195006 98 208 1.0 3.0 0.00 0.00 0.00 52 1016.6
20260903194807 98 28 1.0 3.0 0.00 0.00 0.00 51 1016.6
20260903194609 99 47 1.0 5.0 0.00 0.00 0.00 48 1016.6
20260903194407 99 348 1.0 5.0 0.00 0.00 0.00 49 1016.7
20260903194206 99 348 1.0 5.0 0.00 0.00 0.00 48 1016.7
20260903193806 99 187 1.0 5.0 0.00 0.00 0.00 49 1016.7
20260903193609 98 200 1.0 4.0 0.00 0.00 0.00 51 1016.7
20260903193406 98 142 1.0 4.0 0.00 0.00 0.00 50 1016.7
20260903193206 98 208 1.0 4.0 0.00 0.00 0.00 52 1016.8
20260903192806 99 293 0.0 4.0 0.00 0.00 0.00 49 1016.8
20260903192607 99 163 0.0 1.0 0.00 0.00 0.00 51 1016.8
20260903192411 99 141 0.0 3.0 0.00 0.00 0.00 49 1016.9
20260903192006 100 170 1.0 5.0 0.00 0.00 0.00 48 1016.9
20260903191806 100 164 1.0 5.0 0.00 0.00 0.00 47 1016.9
20260903191608 100 164 1.0 5.0 0.00 0.00 0.00 47 1017.0
20260903191208 100 234 1.0 4.0 0.00 0.00 0.00 46 1017.0
20260903191006 100 49 1.0 4.0 0.00 0.00 0.00 48 1017.0
20260903190806 100 17 2.0 4.0 0.00 0.00 0.00 47 1017.0
20260903190406 101 157 2.0 4.0 0.00 0.00 0.00 46 1017.0
20260903190208 101 202 2.0 4.0 0.00 0.00 0.00 49 1017.0
20260903190008 101 250 2.0 4.0 0.00 0.00 0.00 47 1017.1
20260903185807 101 304 2.0 5.0 0.00 0.00 0.00 47 1017.1
20260903185608 101 261 2.0 8.0 0.00 0.00 0.00 46 1017.2
20260903185406 101 224 2.0 8.0 0.00 0.00 0.00 49 1017.3
20260903185208 101 205 2.0 8.0 0.00 0.00 0.00 48 1017.3
20260903185008 101 214 2.0 8.0 0.00 0.00 0.00 48 1017.3
20260903184808 101 216 1.0 5.0 0.00 0.00 0.00 46 1017.3
20260903180806 98 232 1.0 4.0 0.00 0.00 0.00 53 1017.6
20260903180608 97 328 2.0 4.0 0.00 0.00 0.00 52 1017.6
20260903180406 97 281 2.0 4.0 0.00 0.00 0.00 51 1017.6
20260903180208 97 270 2.0 4.0 0.00 0.00 0.00 53 1017.7
20260903180008 97 257 1.0 3.0 0.00 0.00 0.00 50 1017.7
20260903175806 97 217 1.0 3.0 0.00 0.00 0.00 51 1017.7
20260903175610 97 186 1.0 3.0 0.00 0.00 0.00 53 1017.7
20260903175406 97 78 1.0 3.0 0.00 0.00 0.00 50 1017.7
20260903175206 97 74 1.0 3.0 0.00 0.00 0.00 51 1017.7
20260903174806 97 102 0.0 2.0 0.00 0.00 0.00 52 1017.8
20260903174609 98 84 0.0 2.0 0.00 0.00 0.00 51 1017.8
20260903174407 98 182 0.0 2.0 0.00 0.00 0.00 51 1017.8
20260903174007 98 223 0.0 1.0 0.00 0.00 0.00 50 1017.8
20260903173807 98 223 0.0 3.0 0.00 0.00 0.00 51 1017.9
20260903173609 98 223 1.0 6.0 0.00 0.00 0.00 51 1017.9
20260903173406 98 223 1.0 6.0 0.00 0.00 0.00 50 1017.9
20260903173206 98 186 1.0 6.0 0.00 0.00 0.00 51 1017.9
20260903172806 98 126 1.0 2.0 0.00 0.00 0.00 53 1017.9
20260903172609 98 79 1.0 2.0 0.00 0.00 0.00 50 1018.0
20260903172406 98 227 1.0 3.0 0.00 0.00 0.00 52 1017.9
20260903172206 98 149 1.0 3.0 0.00 0.00 0.00 52 1017.9
20260903172006 98 173 1.0 3.0 0.00 0.00 0.00 52 1018.0
20260903171806 98 204 1.0 4.0 0.00 0.00 0.00 53 1017.9
20260903171610 98 223 1.0 4.0 0.00 0.00 0.00 50 1018.0
20260903171406 98 244 1.0 4.0 0.00 0.00 0.00 52 1018.1